EHI
0 0 0 0 0 0 0 0 0 0 0 0 0 0 0 0 0 0 0 0 0 0 0 0 0 0 0 0 0 0 0 0 0 0 0 0 0 0
0 0 0 0 0 0 0 0 0 0 0 0 0 0 0 0 0 0 0 0 0 0 0 0 0 0 0 0 0 0 0 0 0 0 0 0 0 0
0 0 0 0 0 0 0 0 0 0 0 0 0 0 0 0 0 0 0 0 0 0 0 0 0 0 0 0 0 0 0 0 0 0 0 0 0 0
0 0 0 0 0 0 0 0 0 0 0 0 0 0 0 0 0 0 0 0 0 0 0 0 0 0 0 0 0 0 0 0 0 0 0 0 0 0
0 0 0 0 0 0 0 0 0 0 0 0 0 0 0 0 0 0 0 0 0 0 0 0 0 0 0 0 0 0 0 0 0 0 0 0 0 0
0 0 0 0 0 0 0 0 0 0 0 0 0 0 0 0 0 0 0 0 0 0 0 0 0 0 0 0 0 0 0 0 0 0 0 0 0 0
0 0 0 0 0 0 0 0 0 0 0 0 0 0 0 0 0 0 0 0 0 0 0 0 0 0 0 0 0 0 0 0 0 0 0 0 0 0
0 0 0 0 0 0 0 0 0 0 0 0 0 0 0 0 0 0 0 0 0 0 0 0 0 0 0 0 0 0 0 0 0 0 0 0 0 0
0 0 0 0 0 0 0 0 0 0 0 0 0 0 0 0 0 0 0 0 0 0 0 0 0 0 0 0 0 0 0 0 0 0 0 0 0 0
0 0 0 0 0 0 0 0 0 0 0 0 0 0 0 0 0 0 0 0 0 0 0 0 0 0 0 0 0 0 0 0 0 0 0 0 0 0
0 0 0 0 0 0 0 0 0 0 0 0 0 0 0 0 0 0 0 0 0 0 0 0 0 0 0 0 0 0 0 0 0 0 0 0 0 0
0 0 0 0 0 0 0 0 0 0 0 0 0 0 0 0 0 0 0 0 0 0 0 0 0 0 0 0 0 0 0 0 0 0 0 0 0 0
0 0 0 0 0 0 0 0 0 0 0 0 0 0 0 0 0 0 0 0 0 0 0 0 0 0 0 0 0 0 0 0 0 0 0 0 0 0
0 0 0 0 0 0 0 0 0 0 0 0 0 0 0 0 0 0 0 0 0 0 0 0 0 0 0 0 0 0 0 0 0 0 0 0 0 0
0 0 0 0 0 0 0 0 0 0 0 0 0 0 0 0 0 0 0 0 0 0 0 0 0 0 0 0 0 0 0 0 0 0 0 0 0 0
0 0 0 0 0 0 0 0 0 0 0 0 0 0 0 0 0 0 0 0 0 0 0 0 0 0 0 0 0 0 0 0 0 0 0 0 0 0
0 0 0 0 0 0 0 0 0 0 0 0 0 0 0 0 0 0 0 0 0 0 0 0 0 0 0 0 0 0 0 0 0 0 0 0 0 0
0 0 0 0 0 0 0 0 0 0 0 0 0 0 0 0 0 0 0 0 0 0 0 0 0 0 0 0 0 0 0 0 0 0 0 0 0 0
0 0 0 0 0 0 0 0 0 0 0 0 0 0 0 0 0 0 0 0 0 0 0 0 0 0 0 0 0 0 0 0 0 0 0 0 0 0
0 0 0 0 0 0 0 0 0 0 0 0 0 0 0 0 0 0 0 0 0 0 0 0 0 0 0 0 0 0 0 0 0 0 0 0 0 0
0 0 0 0 0 0 0 0 0 0 0 0 0 0 0 0 0 0 0 0 0 0 0 0 0 0 0 0 0 0 0 0 0 0 0 0 0 0
0 0 0 0 0 0 0 0 0 0 0 0 0 0 0 0 0 0 0 0 0 0 0 0 0 0 0 0 0 0 0 0 0 0 0 0 0 0
0 0 0 0 0 0 0 0 0 0 0 0 0 0 0 0 0 0 0 0 0 0 0 0 0 0 0 0 0 0 0 0 0 0 0 0 0 0
Wind_Speed
2 2 2 1 1 1 1 2 2 2 3 2 2 3 3 4 7 5 5 11 14 14 14 15 15 16 16 16 16 17 17 17 17 17 18 17 17 17
2 2 1 1 1 1 1 1 2 2 3 3 3 4 5 5 9 6 6 13 13 14 15 15 15 15 15 16 16 17 17 17 17 18 18 18 17 17
2 2 2 1 1 1 1 1 1 1 3 4 3 4 5 5 6 5 5 5 6 13 14 14 14 15 15 15 16 16 16 16 17 17 18 18 17 17
3 2 2 1 1 1 1 1 1 2 2 5 5 4 5 5 5 6 6 6 5 11 14 14 14 14 15 15 16 16 16 16 16 16 17 17 16 16
4 3 3 2 1 1 1 1 1 2 2 3 5 4 4 4 5 6 5 5 6 8 11 12 14 15 15 15 15 15 16 16 16 16 16 16 16 16
3 3 3 3 3 2 1 2 1 1 2 2 4 4 4 4 4 5 6 5 6 6 8 9 12 14 14 15 15 15 15 16 16 16 15 15 15 15
2 2 2 3 3 2 1 1 1 1 2 2 4 4 4 4 5 4 6 7 6 4 5 5 6 6 7 11 13 15 16 16 16 16 15 15 14 15
2 1 2 2 2 2 3 2 2 2 2 3 3 4 5 5 5 5 6 6 6 3 5 7 5 5 5 5 12 16 16 16 15 16 15 14 14 14
3 2 1 1 1 1 1 3 3 5 5 3 4 5 5 5 5 6 5 6 6 5 5 6 5 6 6 8 15 15 15 15 15 15 15 14 14 14
2 2 2 1 1 1 0 1 2 2 4 3 3 4 5 5 5 5 6 6 5 4 3 5 5 5 7 6 12 14 14 15 15 15 15 15 15 14
1 2 2 2 2 2 0 1 2 3 4 5 6 6 8 8 7 4 4 4 5 4 2 2 4 5 6 5 7 12 13 15 16 16 15 15 15 13
0 1 2 2 2 2 1 1 2 3 2 3 4 5 5 5 7 3 3 3 4 4 2 2 3 4 5 4 4 5 7 11 15 15 15 15 14 7
1 0 1 2 2 2 2 1 3 3 2 2 3 3 3 3 3 3 3 3 3 4 3 3 3 3 4 6 5 4 4 5 6 8 11 14 13 8
1 1 1 2 2 2 2 2 2 2 1 2 2 3 3 4 4 4 4 4 4 6 6 5 4 4 5 6 6 5 5 4 5 6 5 9 10 10
1 1 1 1 2 2 2 2 2 1 1 2 2 3 3 4 4 4 4 4 4 4 4 4 4 4 4 5 6 5 6 5 4 5 5 5 4 4
1 1 1 2 2 3 2 2 2 1 1 2 3 3 3 3 3 4 4 4 4 4 4 4 4 4 4 5 5 6 5 5 5 6 5 5 4 3
2 1 1 1 1 2 2 2 2 2 2 2 2 3 4 4 4 4 3 4 3 5 6 5 4 3 4 4 4 5 5 5 5 5 5 6 5 4
2 1 1 0 0 1 1 2 2 2 2 2 3 3 3 3 4 4 3 3 4 4 5 6 6 5 3 2 3 4 4 4 5 5 4 4 6 5
2 1 0 0 0 1 1 1 2 2 2 2 3 3 3 3 3 3 4 4 4 4 4 4 4 4 4 5 5 2 3 5 5 5 4 3 5 6
1 1 0 0 0 1 1 2 2 2 2 2 3 3 3 3 3 3 3 4 4 4 5 4 3 3 3 4 5 5 5 4 4 5 5 4 4 7
0 0 0 0 1 1 1 1 2 2 2 2 2 3 3 3 3 3 3 5 4 4 5 5 5 7 4 3 3 4 4 5 5 4 5 4 4 4
0 0 0 1 1 1 1 1 2 2 2 2 2 2 2 2 3 3 3 3 4 4 4 4 5 4 2 3 4 5 6 6 6 7 6 4 2 3
1 0 1 1 1 1 1 1 2 2 2 2 2 2 2 3 3 3 3 3 3 4 4 4 4 3 3 3 3 4 6 6 5 6 5 7 7 7
Wind_Direction
165 166 163 174 174 186 185 186 195 283 297 286 300 307 319 317 322 324 319 326 333 335 335 334 334 333 331 330 330 331 329 328 327 326 324 324 322 319
162 159 164 183 179 186 188 200 202 216 271 279 285 301 312 318 325 328 322 329 332 333 333 332 332 331 331 333 333 332 330 328 328 327 326 325 324 323
164 170 183 187 184 192 186 199 228 221 266 289 289 302 306 311 319 319 316 316 318 328 329 330 331 332 333 334 334 333 331 330 328 328 326 325 324 324
177 173 185 178 184 180 192 230 254 250 253 288 302 307 304 307 312 313 317 319 314 322 328 331 334 334 335 335 336 336 334 332 330 328 327 326 326 326
178 182 190 176 194 214 224 239 264 281 273 282 299 304 303 309 316 312 310 310 315 323 328 332 335 335 335 336 336 336 334 333 331 330 328 328 328 328
180 185 189 191 202 212 228 234 253 297 304 297 300 305 307 309 314 319 320 323 320 322 323 328 330 333 333 336 336 335 333 333 332 331 330 329 330 329
169 184 199 208 222 232 246 240 237 274 295 299 301 307 312 321 319 314 313 315 312 314 316 319 321 320 324 329 333 333 332 333 332 333 333 332 331 330
175 198 218 211 230 263 279 283 276 274 284 289 297 300 304 305 305 308 313 319 316 328 326 312 315 313 315 317 327 331 333 334 334 335 334 333 333 332
178 186 226 232 253 232 288 308 302 301 290 282 285 289 293 298 301 304 307 308 300 307 316 303 312 308 310 314 325 330 334 337 337 336 337 338 337 334
182 186 193 209 237 252 304 319 306 305 298 296 275 281 288 290 286 291 296 300 292 296 305 298 307 303 307 306 318 329 335 338 339 339 340 339 337 334
185 187 186 200 247 290 333 303 316 318 328 325 315 315 316 318 318 316 315 315 311 310 310 293 299 303 299 295 311 328 334 338 339 338 339 338 337 334
181 204 220 237 252 284 255 235 286 305 321 334 337 335 329 325 329 317 297 300 306 304 303 308 302 318 311 295 299 316 323 328 333 335 337 337 337 334
179 230 252 264 272 286 299 265 282 311 316 325 326 327 328 327 326 320 300 279 285 282 292 307 300 303 290 300 304 305 314 317 323 325 330 334 337 339
193 216 247 271 302 319 333 322 336 354 347 335 330 326 327 326 321 317 306 294 275 271 280 286 284 292 300 300 303 312 315 313 319 322 323 330 335 339
178 209 282 321 0 3 2 5 9 9 342 332 320 314 311 306 310 312 312 306 297 288 286 283 281 284 282 286 297 305 311 314 322 327 328 328 326 331
104 121 81 59 33 13 15 16 360 328 323 307 308 310 312 314 316 319 320 323 323 319 313 304 295 285 283 284 286 296 303 306 320 326 323 319 325 329
114 94 78 60 40 25 13 8 359 353 346 330 319 317 319 323 322 325 324 326 328 324 327 329 315 290 265 271 292 297 305 307 311 322 327 327 327 330
105 117 100 55 24 354 344 345 344 336 330 323 316 314 318 323 326 328 330 331 329 325 326 327 329 331 329 302 263 288 311 311 318 324 325 322 324 332
97 126 134 314 323 326 322 323 318 315 315 312 308 310 316 322 325 330 335 334 331 326 325 326 335 343 343 332 318 311 314 318 324 327 326 312 307 315
97 136 165 266 312 316 315 320 321 323 322 317 313 314 318 322 327 332 332 329 327 326 329 334 340 338 319 304 303 308 315 308 313 320 321 311 295 297
84 75 261 266 289 306 309 308 302 299 303 310 312 313 319 324 324 326 325 329 331 332 334 330 316 317 303 305 308 314 322 326 317 303 312 318 321 330
170 213 283 287 288 291 297 297 300 298 299 304 309 315 319 317 319 322 325 328 331 330 324 318 321 331 348 342 323 317 324 331 335 331 314 298 298 317
210 227 256 268 270 266 274 283 294 300 301 300 305 311 312 313 318 320 322 325 327 330 333 332 336 343 338 326 322 323 330 335 340 346 341 333 323 302